Flag for U.S.A. Weather past 2 weeks in Casper, Wyoming, U.S.A.

Now
67 °F

Clear.


Feels Like: 67 °F
Forecast: 58 / 90 °F
Wind: 7 mph from West

Location: Natrona County International Airport

Current Time: Jul 3, 2015 at 11:05:26 PM

Latest Report: Jul 3, 2015 at 9:53 PM


Visibility: 10 mi

Pressure: 29.84 "Hg (24.84 "Hg at 1569m altitude)

Humidity: 63%

Dew point: 54 °F

Location of CasperLocation

Historic Weather in Casper — Graph

°F

Casper temperature yesterday

Maximum temperature yesterday: 86 °F (at 4:53 PM)
Minimum temperature yesterday: 55 °F (at 5:53 AM)
Average temperature yesterday: 70 °F

Past Weeks' High & Low Weather Summary

 TemperatureHumidityPressure
High93 °F (Jun 19, 2:53 PM)100% (Jun 19, 6:53 AM)30.19 "Hg (Jun 19, 6:53 AM)
Low46 °F (Jun 20, 4:53 AM)10% (Jun 19, 1:53 PM)29.60 "Hg (Jun 19, 4:53 PM)
Average71 °F53%29.93 "Hg
* Reported Jun 18 9:53 PM — Jul 3 9:53 PM, Casper, Weather by CustomWeather, © 2015

Note: Actual official high and low records may vary slightly from our data, if they occured in-between our weather recording intervals... More about our weather records

Advertising

Casper weather history for previous 24 hours

 ConditionsComfort  
Time TempWeatherWind HumidityBarometerVisibility
9:53 PM
Fri, Jul 3
67 °FClear.7 mph63%29.84 "Hg10 mi
8:53 PM70 °FSunny.9 mph55%29.79 "Hg10 mi
7:53 PM74 °FSunny.12 mph46%29.78 "Hg10 mi
6:53 PM76 °FThundershowers. Sunny.14 mph42%29.80 "Hg10 mi
5:53 PM79 °FPartly sunny.20 mph31%29.82 "Hg10 mi
4:53 PM86 °FSunny.9 mph23%29.80 "Hg10 mi
3:53 PM87 °FSunny.5 mph22%29.83 "Hg10 mi
2:53 PM87 °FSunny.5 mph22%29.84 "Hg10 mi
1:53 PM85 °FPassing clouds.7 mph29%29.86 "Hg10 mi
12:53 PM84 °FPassing clouds.6 mph32%29.89 "Hg10 mi
11:53 AM82 °FSunny.7 mph35%29.91 "Hg10 mi
10:53 AM79 °FSunny.8 mph39%29.93 "Hg10 mi
9:53 AM75 °FSunny.9 mph47%29.94 "Hg10 mi
8:53 AM71 °FSunny.6 mph55%29.96 "Hg10 mi
7:53 AM65 °FSunny.5 mph68%29.98 "Hg9 mi
6:53 AM59 °FSunny.No wind81%29.98 "Hg9 mi
5:53 AM52 °FClear.No wind89%29.99 "Hg10 mi
4:53 AM54 °FClear.No wind86%29.98 "Hg9 mi
3:53 AM55 °FClear.No wind83%29.98 "Hg10 mi
2:53 AM61 °FClear.5 mph72%29.97 "Hg10 mi
1:53 AM64 °FPassing clouds.10 mph68%29.98 "Hg10 mi
12:53 AM64 °FOvercast.6 mph70%29.99 "Hg10 mi
11:53 PM
Thu, Jul 2
64 °FPassing clouds.9 mph70%30.00 "Hg10 mi
Weather by CustomWeather, © 2015

See weather overviewHow to use our weather pages